Time,TemperatureF,DewpointF,PressureIn,WindDirection,WindDirectionDegrees,WindSpeedMPH,WindSpeedGustMPH,Humidity,HourlyPrecipIn,Conditions,Clouds,dailyrainin,SoftwareType,DateUTC
2013-03-04 05:00:00,58.0,46.0,30.15,NNW,330,24.0,-999.0,64,-99.99,,,-99.99,,2013-03-04 05:00:00,
2013-03-04 05:31:00,58.0,46.0,30.15,NNW,330,24.0,-999.0,64,-99.99,,,-99.99,,2013-03-04 05:31:00,
2013-03-04 05:42:00,58.0,46.0,30.15,NNW,330,24.0,-999.0,64,-99.99,,,-99.99,,2013-03-04 05:42:00,
2013-03-04 05:52:00,58.0,46.0,30.15,NNW,330,24.0,-999.0,64,-99.99,,,-99.99,,2013-03-04 05:52:00,
2013-03-04 06:00:00,58.0,46.0,30.15,NNW,330,24.0,-999.0,64,-99.99,,,-99.99,,2013-03-04 06:00:00,
2013-03-04 06:21:00,58.0,46.0,30.15,NNW,330,24.0,-999.0,64,-99.99,,,-99.99,,2013-03-04 06:21:00,
2013-03-04 06:31:00,58.0,46.0,30.15,NNW,330,24.0,-999.0,64,-99.99,,,-99.99,,2013-03-04 06:31:00,
2013-03-04 06:42:00,58.0,46.0,30.15,NNW,330,24.0,-999.0,64,-99.99,,,-99.99,,2013-03-04 06:42:00,
2013-03-04 06:51:00,58.0,46.0,30.15,NNW,330,24.0,-999.0,64,-99.99,,,-99.99,,2013-03-04 06:51:00,
2013-03-04 07:00:00,59.0,-99.9,30.15,NW,310,17.0,-999.0,-999,-99.99,,,-99.99,,2013-03-04 07:00:00,
2013-03-04 07:22:00,59.0,-99.9,30.15,NW,310,17.0,-999.0,-999,-99.99,,,-99.99,,2013-03-04 07:22:00,
2013-03-04 07:32:00,59.0,-99.9,30.15,NW,310,17.0,-999.0,-999,-99.99,,,-99.99,,2013-03-04 07:32:00,
2013-03-04 07:42:00,59.0,-99.9,30.15,NW,310,17.0,-999.0,-999,-99.99,,,-99.99,,2013-03-04 07:42:00,
2013-03-04 07:52:00,59.0,-99.9,30.15,NW,310,17.0,-999.0,-999,-99.99,,,-99.99,,2013-03-04 07:52:00,
2013-03-04 08:00:00,59.0,-99.9,30.15,NW,310,17.0,-999.0,-999,-99.99,,,-99.99,,2013-03-04 08:00:00,
2013-03-04 08:22:00,59.0,-99.9,30.15,NW,310,17.0,-999.0,-999,-99.99,,,-99.99,,2013-03-04 08:22:00,
2013-03-04 08:32:00,59.0,-99.9,30.15,NW,310,17.0,-999.0,-999,-99.99,,,-99.99,,2013-03-04 08:32:00,
2013-03-04 08:42:00,59.0,-99.9,30.15,NW,310,17.0,-999.0,-999,-99.99,,,-99.99,,2013-03-04 08:42:00,
2013-03-04 08:53:00,59.0,-99.9,30.15,NW,310,17.0,-999.0,-999,-99.99,,,-99.99,,2013-03-04 08:53:00,
2013-03-04 09:00:00,61.0,-99.9,30.12,NW,320,9.0,-999.0,-999,-99.99,,,-99.99,,2013-03-04 09:00:00,
2013-03-04 09:32:00,61.0,-99.9,30.12,NW,320,9.0,-999.0,-999,-99.99,,,-99.99,,2013-03-04 09:32:00,
2013-03-04 09:42:00,61.0,-99.9,30.12,NW,320,9.0,-999.0,-999,-99.99,,,-99.99,,2013-03-04 09:42:00,
2013-03-04 09:52:00,61.0,-99.9,30.12,NW,320,9.0,-999.0,-999,-99.99,,,-99.99,,2013-03-04 09:52:00,
2013-03-04 10:00:00,61.0,-99.9,30.12,NW,310,9.0,-999.0,-999,-99.99,,,-99.99,,2013-03-04 10:00:00,
2013-03-04 10:22:00,61.0,-99.9,30.12,NW,310,9.0,-999.0,-999,-99.99,,,-99.99,,2013-03-04 10:22:00,
2013-03-04 10:32:00,61.0,-99.9,30.12,NW,310,9.0,-999.0,-999,-99.99,,,-99.99,,2013-03-04 10:32:00,
2013-03-04 10:42:00,61.0,-99.9,30.12,NW,310,9.0,-999.0,-999,-99.99,,,-99.99,,2013-03-04 10:42:00,
2013-03-04 10:52:00,61.0,-99.9,30.12,NW,310,9.0,-999.0,-999,-99.99,,,-99.99,,2013-03-04 10:52:00,
2013-03-04 11:00:00,64.0,-99.9,30.15,NNE,30,10.0,-999.0,-999,-99.99,,,-99.99,,2013-03-04 11:00:00,
2013-03-04 11:32:00,64.0,-99.9,30.15,NNE,30,10.0,-999.0,-999,-99.99,,,-99.99,,2013-03-04 11:32:00,
2013-03-04 11:42:00,64.0,-99.9,30.15,NNE,30,10.0,-999.0,-999,-99.99,,,-99.99,,2013-03-04 11:42:00,
2013-03-04 11:52:00,64.0,-99.9,30.15,NNE,30,10.0,-999.0,-999,-99.99,,,-99.99,,2013-03-04 11:52:00,
2013-03-04 12:00:00,64.0,-99.9,30.15,NNE,30,10.0,-999.0,-999,-99.99,,,-99.99,,2013-03-04 12:00:00,
2013-03-04 12:22:00,64.0,-99.9,30.15,NNE,30,10.0,-999.0,-999,-99.99,,,-99.99,,2013-03-04 12:22:00,
2013-03-04 12:32:00,64.0,-99.9,30.15,NNE,30,10.0,-999.0,-999,-99.99,,,-99.99,,2013-03-04 12:32:00,
2013-03-04 12:43:00,64.0,-99.9,30.15,NNE,30,10.0,-999.0,-999,-99.99,,,-99.99,,2013-03-04 12:43:00,
2013-03-04 12:53:00,64.0,-99.9,30.15,NNE,30,10.0,-999.0,-999,-99.99,,,-99.99,,2013-03-04 12:53:00,
2013-03-04 13:00:00,65.0,-99.9,30.15,NNE,30,10.0,-999.0,-999,-99.99,,,-99.99,,2013-03-04 13:00:00,
2013-03-04 13:32:00,65.0,-99.9,30.15,NNE,30,10.0,-999.0,-999,-99.99,,,-99.99,,2013-03-04 13:32:00,
2013-03-04 13:42:00,65.0,-99.9,30.15,NNE,30,10.0,-999.0,-999,-99.99,,,-99.99,,2013-03-04 13:42:00,
2013-03-04 13:52:00,65.0,-99.9,30.15,NNE,30,10.0,-999.0,-999,-99.99,,,-99.99,,2013-03-04 13:52:00,
2013-03-04 14:00:00,66.0,-99.9,30.15,NNE,30,10.0,-999.0,-999,-99.99,,,-99.99,,2013-03-04 14:00:00,
2013-03-04 14:42:00,66.0,-99.9,30.15,NNE,30,10.0,-999.0,-999,-99.99,,,-99.99,,2013-03-04 14:42:00,
2013-03-04 14:52:00,66.0,-99.9,30.15,NNE,30,10.0,-999.0,-999,-99.99,,,-99.99,,2013-03-04 14:52:00,
2013-03-04 20:00:00,72.0,-99.9,30.09,East,90,10.0,-999.0,-999,-99.99,,,-99.99,,2013-03-04 20:00:00,
2013-03-04 20:33:00,72.0,-99.9,30.09,East,90,10.0,-999.0,-999,-99.99,,,-99.99,,2013-03-04 20:33:00,
2013-03-04 20:42:00,72.0,-99.9,30.09,East,90,10.0,-999.0,-999,-99.99,,,-99.99,,2013-03-04 20:42:00,
2013-03-04 20:53:00,72.0,-99.9,30.09,East,90,10.0,-999.0,-999,-99.99,,,-99.99,,2013-03-04 20:53:00,
2013-03-04 21:00:00,74.0,-99.9,30.06,East,90,15.0,-999.0,-999,-99.99,,,-99.99,,2013-03-04 21:00:00,
2013-03-04 21:22:00,74.0,-99.9,30.06,East,90,15.0,-999.0,-999,-99.99,,,-99.99,,2013-03-04 21:22:00,
2013-03-04 21:32:00,74.0,-99.9,30.06,East,90,15.0,-999.0,-999,-99.99,,,-99.99,,2013-03-04 21:32:00,
2013-03-04 21:43:00,74.0,-99.9,30.06,East,90,15.0,-999.0,-999,-99.99,,,-99.99,,2013-03-04 21:43:00,
2013-03-04 21:53:00,74.0,-99.9,30.06,East,90,15.0,-999.0,-999,-99.99,,,-99.99,,2013-03-04 21:53:00,
2013-03-04 22:00:00,75.0,-99.9,30.06,East,90,14.0,-999.0,-999,-99.99,,,-99.99,,2013-03-04 22:00:00,
2013-03-04 22:43:00,75.0,-99.9,30.06,East,90,14.0,-999.0,-999,-99.99,,,-99.99,,2013-03-04 22:43:00,
2013-03-04 22:52:00,75.0,-99.9,30.06,East,90,14.0,-999.0,-999,-99.99,,,-99.99,,2013-03-04 22:52:00,
2013-03-04 23:00:00,75.0,-99.9,30.03,East,90,11.0,-999.0,-999,-99.99,,,-99.99,,2013-03-04 23:00:00,
2013-03-04 23:22:00,75.0,-99.9,30.03,East,90,11.0,-999.0,-999,-99.99,,,-99.99,,2013-03-04 23:22:00,
2013-03-04 23:32:00,75.0,-99.9,30.03,East,90,11.0,-999.0,-999,-99.99,,,-99.99,,2013-03-04 23:32:00,
2013-03-04 23:42:00,75.0,-99.9,30.03,East,90,11.0,-999.0,-999,-99.99,,,-99.99,,2013-03-04 23:42:00,
2013-03-04 23:53:00,75.0,-99.9,30.03,East,90,11.0,-999.0,-999,-99.99,,,-99.99,,2013-03-04 23:53:00,